Regional Weather Roundup
Issued by NWS

Home | Current Version | Previous Version | Text Only | Print | Product List | Glossary On
Versions: 1 2 3 4 5 6 7 8 9 10 11 12 13 14 15 16 17 18 19 20 21 22 23 24 25 26 27 28 29 30 31 32 33 34 35 36 37 38 39 40 41 42 43 44 45 46 47 48 49 50
000
ASUS43 KDTX 240610
RWRMI
MICHIGAN HOURLY REGIONAL WEATHER ROUNDUP
NATIONAL WEATHER SERVICE DETROIT/PONTIAC MI
200 AM EDT THU APR 24 2014

NOTE: "FAIR" INDICATES FEW OR NO CLOUDS BELOW 12,000 FEET WITH NO
SIGNIFICANT WEATHER AND/OR OBSTRUCTION TO VISIBILITY.

MIZ047>049-052>055-059>063-066>070-074>076-081>083-240700-
SOUTHEAST LOWER MICHIGAN

CITY           SKY/WX    TMP DP  RH WIND       PRES   REMARKS
ADRIAN         FAIR      46  31  55 S5        30.11S
6HR MIN TEMP:  46; 6HR MAX TEMP:  52;

ALMA           FAIR      38  26  61 NE8       30.11S WCI  32
ANN ARBOR      FAIR      44  29  55 E6        30.11S
BAD AXE        FAIR      27  24  86 CALM      30.14S
6HR MIN TEMP:  27; 6HR MAX TEMP:  41;

CARO           FAIR      34  25  69 CALM      30.13S
DETROIT CITY   FAIR      40  18  41 E5        30.14F
6HR MIN TEMP:  40; 6HR MAX TEMP:  51;

DETROIT        CLOUDY    43  24  47 E6        30.13S
6HR MIN TEMP:  43; 6HR MAX TEMP:  52;

FLINT          FAIR      39  21  48 SE6       30.12F WCI  35
6HR MIN TEMP:  39; 6HR MAX TEMP:  51;

GROSSE ILE     FAIR      43  18  36 E6        30.12S
HILLSDALE      FAIR      47  28  47 SE7       30.08F
6HR MIN TEMP:  47; 6HR MAX TEMP:  51;

HOWELL         FAIR      42  24  47 SE9       30.10S
6HR MIN TEMP:  41; 6HR MAX TEMP:  49;


CITY           SKY/WX    TMP DP  RH WIND       PRES   REMARKS
JACKSON        FAIR      45  24  43 SE7       30.09S
6HR MIN TEMP:  45; 6HR MAX TEMP:  51;

LAMBERTVILLE   FAIR      46  27  46 SE5       30.11S
LANSING        FAIR      43  32  65 CALM      30.10S
6HR MIN TEMP:  43; 6HR MAX TEMP:  52;

LAPEER         FAIR      33  25  72 CALM      30.13S
MASON          FAIR      42  27  54 CALM      30.09S
MONROE         FAIR      45  34  65 E5        30.10S
MT. CLEMENS    FAIR      34  18  53 E2        30.13S
6HR MIN TEMP:  34; 6HR MAX TEMP:  44;

PONTIAC        FAIR      39  17  41 SE5       30.12S
6HR MIN TEMP:  39; 6HR MAX TEMP:  49;

PORT HOPE        N/A     30  22  72 CALM      30.11F
6HR MIN TEMP:  30; 6HR MAX TEMP:  40;

PORT HURON     FAIR      28  27  93 CALM      30.14F
TRI CITIES     FAIR      39  26  59 E6        30.13S WCI  35
6HR MIN TEMP:  39; 6HR MAX TEMP:  50;

TROY           FAIR      40  12  32 CALM      30.14F
SAGINAW HB     FAIR      37  27  65 E3        30.12F
YPSILANTI      FAIR      45  27  49 E8        30.12S
6HR MIN TEMP:  41; 6HR MAX TEMP:  51;

$$
MIZ043>046-050>051-056>058-064>065-071>073-077>080-240700-
SOUTHWEST LOWER MICHIGAN

CITY           SKY/WX    TMP DP  RH WIND       PRES   REMARKS
BATTLE CREEK   CLOUDY    48  29  47 E5        30.08F
6HR MIN TEMP:  47; 6HR MAX TEMP:  54;

BENTON HARBOR  CLOUDY    43  30  60 E5        30.06S
6HR MIN TEMP:  38; 6HR MAX TEMP:  43;

BIG RAPIDS     FAIR      40  22  49 CALM      30.11R
6HR MIN TEMP:  38; 6HR MAX TEMP:  51;

COLDWATER      CLOUDY    48  18  30 SE8       30.08S
6HR MIN TEMP:  47; 6HR MAX TEMP:  52;

FREMONT        FAIR      41  26  55 NE5       30.09R
HOLLAND        CLOUDY    46  29  51 E5        30.09R
6HR MIN TEMP:  44; 6HR MAX TEMP:  46;

GRAND RAPIDS   FAIR      45  29  53 E5        30.09S
6HR MIN TEMP:  45; 6HR MAX TEMP:  50;

IONIA          FAIR      43  30  59 CALM      30.09R
KALAMAZOO      CLOUDY    47  31  53 E3        30.08S
6HR MIN TEMP:  47; 6HR MAX TEMP:  50;

LUDINGTON      FAIR      37  23  57 CALM      30.11S
6HR MIN TEMP:  34; 6HR MAX TEMP:  42;

MARSHALL       MOCLDY    45  30  55 CALM      30.08S
MOUNT PLEASANT FAIR      38  25  59 CALM      30.11S
6HR MIN TEMP:  37; 6HR MAX TEMP:  53;

MUSKEGON       FAIR      45  24  43 CALM      30.10R
6HR MIN TEMP:  42; 6HR MAX TEMP:  46;

SOUTH HAVEN    CLOUDY    43  28  56 E5        30.07R
$$
MIZ016>042-240700-
NORTHERN LOWER MICHIGAN

CITY           SKY/WX    TMP DP  RH WIND       PRES   REMARKS
ALPENA         FAIR      28  24  85 CALM      30.14S
6HR MIN TEMP:  27; 6HR MAX TEMP:  45;

BEAVER ISLAND  FAIR      30  25  80 E5        30.14S WCI  25
6HR MIN TEMP:  29; 6HR MAX TEMP:  37;

BELLAIRE       FAIR      31  26  84 CALM      30.14R
6HR MIN TEMP:  30; 6HR MAX TEMP:  45;

CADILLAC       FAIR      34  21  60 NE6       30.10S WCI  28
CHARLEVOIX     FAIR      32  23  70 E5        30.17S WCI  27
6HR MIN TEMP:  31; 6HR MAX TEMP:  39;

FRANKFORT      FAIR      40  18  42 E3        30.12R
GAYLORD        FAIR      30  21  69 CALM      30.12S
6HR MIN TEMP:  30; 6HR MAX TEMP:  44;

GRAYLING       FAIR      28  21  74 W3        30.13S
6HR MIN TEMP:  26; 6HR MAX TEMP:  46;

HARBOR SPRINGS FAIR      29  25  82 CALM      30.14S
HOUGHTON LAKE  FAIR      31  25  78 CALM      30.12S
6HR MIN TEMP:  31; 6HR MAX TEMP:  48;

MANISTEE       FAIR      37  18  44 E5        30.12R WCI  34
OSCODA         FAIR      28  20  71 CALM      30.14S
PELLSTON       FAIR      28  21  75 CALM      30.15S
6HR MIN TEMP:  27; 6HR MAX TEMP:  45;

ROGERS CITY    FAIR      33  24  69 W5        30.15S WCI  29
TRAVERSE CITY  FAIR      33  27  78 CALM      30.12S
6HR MIN TEMP:  32; 6HR MAX TEMP:  45;

$$
MIZ007>008-015-240700-
EASTERN UPPER MICHIGAN

CITY           SKY/WX    TMP DP  RH WIND       PRES   REMARKS
KINROSS        FAIR      28  27  93 CALM      30.13S
6HR MIN TEMP:  28; 6HR MAX TEMP:  39;

MACKINAC ISLAN FAIR      30  24  78 N5        30.14S WCI  25
6HR MIN TEMP:  30; 6HR MAX TEMP:  37;

NEWBERRY       FAIR      31  27  84 CALM      30.13S
6HR MIN TEMP:  31; 6HR MAX TEMP:  41;

S. S. MARIE    FAIR      31  24  75 CALM      30.13S
6HR MIN TEMP:  31; 6HR MAX TEMP:  40;

MUNISING         N/A     34  23  64 S6        30.13R WCI  29
6HR MIN TEMP:  33; 6HR MAX TEMP:  37;

$$
MIZ004>006-011>014-085-240700-
CENTRAL UPPER MICHIGAN

CITY           SKY/WX    TMP DP  RH WIND       PRES   REMARKS
MANISTIQUE     FAIR      28  27  93 N3        30.13R
ESCANABA       FAIR      30  25  80 CALM      30.13R
6HR MIN TEMP:  30; 6HR MAX TEMP:  39;

MENOMINEE      FAIR      36  19  51 NE5       30.11F WCI  32
6HR MIN TEMP:  36; 6HR MAX TEMP:  43;

SAWYER-GWINN   FAIR      35  21  57 S3        30.11R
6HR MIN TEMP:  35; 6HR MAX TEMP:  45;

$$
MIZ001>003-009>011-084-240700-
WESTERN UPPER MICHIGAN

CITY           SKY/WX    TMP DP  RH WIND       PRES   REMARKS
IRON MOUNTAIN  FAIR      38  14  37 CALM      30.09S
6HR MIN TEMP:  38; 6HR MAX TEMP:  50;

HOUGHTON       FAIR      37  19  48 E3        30.08S
6HR MIN TEMP:  35; 6HR MAX TEMP:  39;

COPPER HARBOR    N/A     38  20  48 SW10G16   30.08F WCI  31
6HR MIN TEMP:  36; 6HR MAX TEMP:  41;

IRONWOOD       CLOUDY    46  23  39 S6        30.01S
6HR MIN TEMP:  46; 6HR MAX TEMP:  54;

$$

ABBREVIATIONS USED IN REMARKS
   TC - TEMPERATURE IN CELSIUS
  WCI - WIND CHILL INDEX
   HX - HEAT INDEX
  VSB - VISIBILITY




USA.gov is the U.S. government's official web portal to all federal, state and local government web resources and services.